STARLINK-11272, 60723

Orbit data source: Space-Track

STARLINK-11272, 60723 is a payload satellite owned by SpaceX/Seattle (US) in LEO that was launched on Wed, 28 Aug 2024 UTC via an FALCON 9 launch vehicle from the Air Force Eastern Test Range (AFETR). Payload-class satellites include a variety of spacecraft equipped with specific instruments for various scientific and technological missions. These include communications satellites like Starlink; space stations such as the ISS; scientific satellites like the Hubble; Earth observation satellites from companies like Planet Labs, Umbra, and HawkEye 360; GPS; miniature CubeSats for education and research; and military/defense satellites.

Loading next visibility...
Identifier
60723, 2024-152D
Orbit
LEO
Country
Flag of USUS
Related business
Manufacturer
SpaceX/Seattle
Mission
Operational Commercial Communications
Bus & Motor
STARLINK V2MD, Unknown motor
Mass
960 kg wet, ~910 kg dry
Launch date (UTC)
2024-08-28 (2 years ago)
Launch vehicle
FALCON 9
Launch site
Air Force Eastern Test Range (AFETR)
Object type
Payload
Rocket body
Debris
Shape & HBR
Box + 2 Pan, 18.1 m
Radar Cross Section
36.964 m², Large (>1 m²)

Expand to show TLE details & history
Last TLE update: 13 hours ago

TLE from 13 hours ago
0 STARLINK-11272
1 60723U 24152D   26131.08436602  .00001546  00000-0  17619-4 0  9998
2 60723  53.1582 168.7636 0001062  87.2102 272.9037 15.69708829 98631
Epoch: 2026-05-11T02:01Z
TLE epoch observation values (Epoch: 2026-05-11T02:01:29.224Z)
Latitude
-0.00004°
Longitude
-90.48637°
Altitude
360.609 km
Speed
7.694 km/s
True Right ascension
11h 15m 03s
True Declination
0° 00' 00"
Sunlit
Object was in full shadow at epoch
Visualization orbit readout
Latitude
Unknown
Longitude
Unknown
Altitude
Unknown
Speed
Unknown
Apparent Right ascension
Unknown
Apparent Declination
Unknown
Sunlit
N/A
Visualization observer readout
Local Sidereal Time
23:09:08
Azimuth
Unknown
Elevation
Unknown
Doppler factor
Unknown
Orbital elements
Apogee altitude
360.707 km
Perigee altitude
359.275 km
Semi-major axis
6,738.128 km
Eccentricity
0.00011
Inclination
53.1582°
RAAN
168.7636°
Arg. of periapsis
87.2102°
True anomaly
272.89155°
Mean anomaly
272.9037°
Eccentric anomaly
272.89762°
Mean motion
3.92405 °/min
Orbital period
91.74 mins
BSTAR
0.000017619
Loading maneuver chart data...
Computing Atmospheric mass density...
Loading historical data...
Loading historical data...
Loading historical data...
Loading historical data...
Loading historical data...
Loading historical data...
Loading historical data...

Documentation

Showing up to 5 results
|